Location: El Barbasco
(9.9682°N, 67.7441°W)
Time: 20:39:46
(UTC+00:00)

GPS 2-15 Rocket1 - Pass Details

Date: 05 August 2024
Orbit: 615 x 661 km, 19.8° (Epoch: 07 September)

Event Time Altitude Azimuth Distance (km) Brightness Sun altitude
Rises 23:33:16 0° 273° (W) 2,956 8.2 -10.4°
Reaches altitude 10° 23:35:50 10° 281° (WNW) 2,038 7.3 -11.0°
Maximum altitude 23:40:14 36° 348° (NNW) 1,013 4.5 -12.0°
Drops below altitude 10° 23:44:35 10° 55° (NE) 2,008 5.3 -13.0°
Enters shadow 23:45:23 - 59° (ENE) 2,289 5.6 -13.2°
